Regional Weather Roundup
Issued by NWS

Home | Current Version | Previous Version | Graphics & Text | Print | Product List | Glossary On
Versions: 1 2 3 4 5 6 7 8 9 10 11 12 13 14 15 16 17 18 19 20 21 22 23 24 25 26 27 28 29 30 31 32 33 34 35 36 37 38 39 40 41 42 43 44 45 46 47 48 49 50
000
ASUS43 KDMX 300407
RWRIA

WEATHER ROUNDUP FOR IOWA
NATIONAL WEATHER SERVICE DES MOINES IA
1100 PM CDT SAT AUG 29 2015

NOTE: "FAIR" INDICATES FEW OR NO CLOUDS BELOW 12,000 FEET WITH NO
SIGNIFICANT WEATHER AND/OR OBSTRUCTIONS TO VISIBILITY.

* - THESE STATIONS ARE NOT NWS STATIONS...THUS NOT UNDER NWS
QUALITY CONTROL.  THEY ALSO DO NOT REPORT WEATHER SUCH
AS PRECIPITATION OR FOG.

IAZ001>003-012>014-020>022-031>034-043>046-300500-
   NORTHWEST IOWA

CITY           SKY/WX    TMP DP  RH WIND       PRES   REMARKS
CARROLL *      CLOUDY    64  64 100 S6        30.06F
CHEROKEE *     CLOUDY    63  63 100 S9        30.05S
DENISON *      CLOUDY    64  61  88 SE7       30.04F
LE MARS *      MOCLDY    63  63 100 S5        30.04S
ORANGE CITY *  CLEAR     63  61  94 S6        30.04S
SHELDON *      CLOUDY    61  61 100 S6        30.02F
SPENCER        MOCLDY    61  59  93 S9        30.05S
STORM LAKE *   CLOUDY    63  61  94 S8        30.07S
$$

IAZ055>058-069>071-079>083-090>094-300500-
   SOUTHWEST IOWA

CITY           SKY/WX    TMP DP  RH WIND       PRES   REMARKS
ATLANTIC *     CLOUDY    66  63  88 CALM      30.06F
AUDUBON *      CLOUDY    64  61  88 SE5       30.08S
CLARINDA *     CLEAR     64  64 100 CALM      30.07S
COUNCIL BLFS *   N/A     64  63  94 SE3       30.06F
CRESTON *      PTCLDY    63  63 100 NE5       30.07F
HARLAN  *      CLOUDY    64  36  34 SE5       30.09F
LAMONI         CLEAR     67  65  93 CALM      30.06S
RED OAK *      CLOUDY    68  64  88 CALM      30.06S
SHENANDOAH *   CLOUDY    68  66  94 W3        30.06F
$$

IAZ047>049-059>061-072>074-084-300500-
   CENTRAL IOWA

CITY           SKY/WX    TMP DP  RH WIND       PRES   REMARKS
AMES           CLOUDY    67  63  87 CALM      30.06S
ANKENY *       MOCLDY    64  64 100 CALM      30.05S
CHARITON *     MOCLDY    64  63  94 CALM      30.06S FOG
DES MOINES     MOCLDY    68  62  81 SE3       30.04F
GRINNELL*      CLEAR     63  61  94 CALM      30.06S
KNOXVILLE *    CLEAR     64  63  94 CALM      30.04S
MARSHALLTOWN   CLEAR     64  62  93 NE6       30.05F
PELLA *        CLEAR     63  63 100 CALM      30.06S
PERRY *        CLOUDY    66  64  94 CALM      30.06S
$$

IAZ004>006-015-016-023>025-035-036-300500-
   NORTH CENTRAL IOWA

CITY           SKY/WX    TMP DP  RH WIND       PRES   REMARKS
ALGONA *       CLOUDY    61  59  94 S5        30.06S
CLARION *      FOG       61  59  94 CALM      30.06S VSB 1/4
ESTHERVILLE    FOG       60  60 100 S9        30.04F VSB 3/4
FORT DODGE *   CLOUDY    64  61  88 CALM      30.06F
MASON CITY     CLOUDY    62  61  96 CALM      30.07S
FOREST CITY *  FOG       55  55 100 CALM      30.06S VSB 0
IOWA FALLS *   CLOUDY    66  64  94 CALM      30.07S
$$

IAZ007>011-017>019-026>030-037>042-050>054-066-300500-
   NORTHEAST IOWA

CITY           SKY/WX    TMP DP  RH WIND       PRES   REMARKS
CEDAR RAPIDS   CLEAR     62  62 100 N3        30.04F
CHARLES CITY * CLEAR     64  64 100 S5        30.06S
CLINTON *      CLOUDY    68  64  88 NE7       30.06F
DECORAH *      CLOUDY    64  63  94 SE3       30.05F
DUBUQUE        CLOUDY    66  63  90 NE5       30.06F
MONTICELLO *   PTCLDY    64  63  94 CALM      30.05S
OELWEIN *      CLOUDY    64  63  94 SE5       30.07S
WATERLOO       CLEAR     64  61  90 CALM      30.05S
$$

IAZ064-065-067-068-078-300500-
   EAST CENTRAL IOWA

CITY           SKY/WX    TMP DP  RH WIND       PRES   REMARKS
DAVENPORT      CLEAR     63  61  93 CALM      30.04F FOG
IOWA CITY      CLEAR     67  65  93 CALM      30.04F
MT. PLEASANT *   N/A     68  64  88 CALM      30.04S FOG
MUSCATINE *    FOG       64  63  94 CALM      30.04S VSB 0
QUAD CITIES    FOG       61  60  97 SE3       30.03F VSB 1/4
$$

IAZ062-063-075>077-085>089-095>099-300500-
   SOUTHEAST IOWA

CITY           SKY/WX    TMP DP  RH WIND       PRES   REMARKS
BURLINGTON     CLEAR     69  68  96 NE5       30.03F FOG
FAIRFIELD *    FOG       64  63  94 N3        30.04S VSB 1/4
FORT MADISON * MOCLDY    68  68 100 CALM      30.04F FOG
KEOKUK *       CLOUDY    72  70  94 NE3       30.03S
OSKALOOSA *      N/A     61  59  94 CALM      30.06R FOG
CENTERVILLE *  FOG       63  63 100 CALM      30.07S VSB 1/2
OTTUMWA        PTCLDY    66  65  96 NE3       30.03S
WASHINGTON *     N/A    N/A N/A N/A MISG        N/A
$$

ABBREVIATIONS USED IN REMARKS
   TC - TEMPERATURES IN CELSIUS
  WCI - WIND CHILL INDEX
   HX - HEAT INDEX
  VSB - VISIBILITY
$$




USA.gov is the U.S. government's official web portal to all federal, state and local government web resources and services.